ONEWEB-0186, 48229

Orbit data source: Space-Track

ONEWEB-0186, 48229 is a payload satellite owned by One Web (NAA) (UK) in LEO that was launched on Sun, 25 Apr 2021 UTC via a SOYUZ-2-1B launch vehicle from the Vostochny Cosmodrome (VOSTO). Payload-class satellites include a variety of spacecraft equipped with specific instruments for various scientific and technological missions. These include communications satellites like Starlink; space stations such as the ISS; scientific satellites like the Hubble; Earth observation satellites from companies like Planet Labs, Umbra, and HawkEye 360; GPS; miniature CubeSats for education and research; and military/defense satellites.

Loading next visibility...
Identifier
48229, 2021-031V
Orbit
LEO
Country
Flag of UKUK
Related business
Manufacturer
One Web
Mission
Operational Commercial Communications
Bus & Motor
ARROW, Unknown motor
Mass
148 kg wet, ~140 kg dry
Launch date (UTC)
2021-04-25 (5 years ago)
Launch vehicle
SOYUZ-2-1B
Launch site
Vostochny Cosmodrome (VOSTO)
Object type
Payload
Rocket body
Debris
Shape & HBR
Trap Box + 2 Pan, 6.7 m
Radar Cross Section
3.464 m², Medium (>0.1 m² and < 1m²)

Expand to show TLE details & history
Last TLE update: 12 hours ago

TLE from 12 hours ago
0 ONEWEB-0186
1 48229U 21031V   25306.36227005  .00000046  00000-0  88749-4 0  9993
2 48229  87.9016 334.8757 0001919  91.0969 269.0380 13.14503885218589
Epoch: 2025-11-02T08:41Z
TLE epoch observation values (Epoch: 2025-11-02T08:41:40.132Z)
Latitude
-0.00007°
Longitude
162.57939°
Altitude
1,208.705 km
Speed
7.25 km/s
True Right ascension
22h 19m 30s
True Declination
0° 00' 00"
Sunlit
Object was in daylight at epoch
Visualization orbit readout
Latitude
Unknown
Longitude
Unknown
Altitude
Unknown
Speed
Unknown
Apparent Right ascension
Unknown
Apparent Declination
Unknown
Sunlit
N/A
Visualization observer readout
Local Sidereal Time
16:52:23
Azimuth
Unknown
Elevation
Unknown
Doppler factor
Unknown
Orbital elements
Apogee altitude
1,204.355 km
Perigee altitude
1,201.445 km
Semi-major axis
7,581.037 km
Eccentricity
0.00019
Inclination
87.9016°
RAAN
334.8757°
Arg. of periapsis
91.0969°
True anomaly
269.01601°
Mean anomaly
269.038°
Eccentric anomaly
269.02701°
Mean motion
3.28814 °/min
Orbital period
109.48 mins
BSTAR
0.000088749
Loading maneuver chart data...
Computing Atmospheric mass density...
Loading historical data...
Loading historical data...
Loading historical data...
Loading historical data...
Loading historical data...
Loading historical data...
Loading historical data...

Documentation

Showing up to 5 results
|